Wind_Speed
15 15 16 16 15 14 16 18 19 21 22 23 23 23 24 26 27 27 28 30 33 35 34 35 36 37 39 41 45 48 52 54 54 56 60 61 61 63 68 70 72 76 78 81
17 16 15 14 15 14 16 19 20 21 22 23 25 25 26 26 27 28 30 32 33 34 35 37 39 41 44 46 48 50 53 57 61 63 64 64 66 69 73 75 79 82 85 85
16 16 15 16 13 12 17 20 22 23 24 24 24 24 26 25 27 30 31 32 34 35 37 39 43 45 47 49 52 55 58 61 63 65 65 68 72 75 78 83 85 85 87 88
17 18 16 16 16 16 18 20 23 24 24 24 26 26 23 26 26 29 32 34 35 39 42 45 47 48 51 54 56 60 61 65 66 67 70 72 76 80 86 87 90 93 96 98
20 20 18 18 18 22 21 21 23 24 26 27 28 29 27 31 28 30 34 37 40 43 44 48 49 51 56 57 59 62 66 68 70 69 72 76 82 87 89 93 97 101 105 105
22 23 22 20 21 24 24 24 26 28 30 31 33 34 31 33 36 36 37 41 43 45 48 50 53 57 60 63 64 66 69 71 71 74 81 86 89 92 97 101 106 108 106 99
26 25 24 24 25 27 28 30 31 32 35 36 36 37 38 37 39 41 44 47 49 50 52 54 58 61 61 65 68 70 71 72 77 83 86 89 92 98 102 106 107 102 97 98
28 29 29 29 29 29 31 34 35 35 36 38 38 38 39 41 42 44 47 50 52 55 57 59 58 62 68 69 69 73 76 80 82 86 89 92 98 103 106 104 99 96 97 95
32 32 35 33 33 34 34 37 37 36 37 38 41 43 42 42 48 49 53 53 53 54 54 57 62 66 67 70 74 79 81 84 86 89 94 98 104 105 100 97 96 95 89 81
32 33 33 34 36 36 36 38 38 38 39 39 42 46 47 49 50 53 53 52 54 55 58 62 66 67 72 76 79 78 84 86 90 95 99 104 104 98 97 97 94 84 76 67
35 37 35 35 37 39 41 40 40 42 42 44 45 49 47 52 53 50 51 53 54 57 62 68 70 73 75 79 81 83 87 91 95 98 102 100 95 96 96 94 85 76 63 53
35 37 36 33 35 36 39 40 40 41 42 44 46 47 48 47 48 47 50 52 58 63 67 73 74 76 78 79 84 88 93 96 100 101 97 94 95 95 93 85 73 60 54 52
34 35 37 39 41 36 41 41 43 43 43 45 47 45 47 45 48 52 52 57 62 66 71 73 76 78 80 84 88 93 98 101 100 96 94 95 94 93 85 73 63 61 57 53
36 36 36 36 37 39 40 41 42 45 43 43 45 45 48 52 54 54 56 61 68 70 69 71 75 81 86 89 93 95 96 93 92 91 92 93 91 84 72 64 66 63 56 48
34 36 37 35 34 37 40 40 40 42 43 44 47 52 54 55 53 57 62 68 70 67 70 76 81 85 88 91 92 92 88 89 87 90 91 88 81 69 63 65 64 60 51 45
33 35 37 37 36 44 47 43 45 46 46 48 49 50 50 55 57 63 66 64 67 71 75 80 85 87 88 87 85 82 82 83 85 87 86 78 66 56 61 63 61 57 45 38
32 33 35 36 33 37 40 42 45 46 44 47 46 50 56 60 58 57 61 68 72 76 78 83 84 83 79 78 75 73 76 80 83 83 74 63 49 53 57 60 61 55 45 37
32 32 33 34 38 38 39 40 46 47 48 50 52 52 48 52 57 62 66 70 78 80 80 78 75 72 70 67 68 73 76 78 78 73 60 46 45 51 53 57 57 54 46 37
32 33 36 38 40 41 44 42 46 47 50 48 48 52 56 60 64 63 64 76 75 71 67 67 64 62 61 64 69 71 74 76 70 58 46 39 46 48 50 54 53 46 42 38
35 36 38 41 43 45 49 45 48 46 49 50 54 59 64 67 70 70 72 63 60 60 59 57 55 55 59 63 68 70 72 71 60 46 35 40 46 45 48 50 49 43 36 30
39 38 39 41 43 45 41 46 49 51 55 59 62 65 67 70 72 66 57 52 51 50 47 46 49 53 59 62 66 68 70 63 49 34 36 41 45 44 47 46 43 38 34 28
43 42 43 43 42 45 47 49 54 57 59 61 64 67 70 65 56 46 42 40 39 41 42 46 50 55 59 63 65 67 67 56 35 33 38 43 43 43 46 42 35 32 27 24
46 44 44 40 48 46 49 53 57 59 62 63 67 66 57 49 38 35 34 34 36 39 45 50 51 58 59 63 65 66 63 45 30 33 38 43 40 43 41 35 30 25 23 22
44 44 49 49 53 52 54 57 60 63 63 65 57 48 36 31 30 32 33 37 41 45 50 54 56 61 62 65 66 63 57 32 29 36 38 43 39 40 32 29 24 22 21 23
48 46 50 56 54 55 57 61 63 60 55 47 41 33 31 30 30 35 39 43 47 50 52 56 59 65 65 65 66 60 51 26 29 35 38 39 37 32 29 23 21 21 23 25
53 57 55 55 58 60 61 57 53 47 41 34 28 28 30 33 35 38 41 44 47 50 53 57 59 63 65 67 65 59 48 23 28 34 37 35 32 26 23 19 21 22 24 24
Wind_Direction
272 282 287 291 290 298 306 307 304 306 304 306 307 307 303 302 305 309 312 313 313 312 311 310 312 310 307 307 309 309 309 309 309 307 307 306 304 302 304 305 306 305 304 304
264 276 282 283 286 300 305 301 301 300 302 303 305 308 305 308 310 315 316 314 311 311 314 313 310 311 312 313 312 310 310 310 309 308 307 304 302 302 304 306 306 305 306 306
263 275 278 279 291 305 300 298 302 303 303 301 304 306 310 310 315 317 316 314 313 312 312 312 313 313 312 311 311 310 311 313 311 309 307 305 305 307 308 308 307 305 304 303
260 267 271 275 286 297 302 313 310 308 305 304 308 310 314 310 312 311 309 310 312 312 313 314 313 312 311 311 310 311 312 312 311 310 308 308 308 308 308 309 308 308 308 307
259 263 267 273 286 291 300 304 302 304 305 306 306 307 313 309 311 309 310 312 313 313 313 313 311 311 310 311 311 312 312 311 311 309 308 309 309 309 310 310 310 311 311 309
260 264 269 276 282 286 290 295 300 302 303 303 303 304 312 306 309 310 310 311 312 312 311 311 310 311 314 313 312 312 311 311 311 310 312 312 311 312 313 313 313 313 312 311
261 269 273 273 276 282 286 291 295 300 302 303 302 302 305 302 304 308 311 311 311 310 307 307 308 310 312 312 313 313 313 312 312 312 312 311 313 313 314 314 314 313 312 310
265 266 267 269 273 275 281 289 295 300 303 302 299 301 300 302 304 307 308 308 308 308 310 312 313 313 313 314 315 315 314 313 313 312 312 313 313 314 315 315 314 313 310 310
267 267 270 271 273 274 278 284 289 295 298 301 298 298 299 302 304 305 306 307 308 308 310 311 311 313 313 314 315 314 313 313 313 314 314 315 315 317 316 316 314 312 312 311
272 275 280 285 288 287 281 282 288 291 294 296 299 300 304 305 307 307 308 310 310 311 310 311 314 315 314 314 313 314 314 314 315 314 315 316 318 318 317 316 315 315 314 313
274 278 281 283 285 286 287 286 285 288 290 292 295 299 305 306 309 312 312 312 312 310 312 313 313 313 313 314 314 315 316 316 315 315 317 319 319 318 319 318 319 319 317 315
273 274 279 287 288 292 292 293 292 293 293 295 296 297 303 308 311 314 311 309 309 310 313 313 313 314 313 315 316 316 316 316 316 318 320 320 320 321 320 321 321 319 318 312
273 274 276 279 282 288 292 294 292 291 292 293 295 299 307 309 307 308 306 308 309 310 313 313 313 314 315 315 316 316 317 317 319 321 321 321 322 322 324 324 325 322 316 308
275 278 281 283 284 286 285 288 290 290 289 295 299 301 307 308 308 307 306 308 310 314 315 314 313 313 314 315 315 317 317 319 320 321 321 322 324 324 326 329 329 326 321 316
278 278 279 277 278 286 287 289 289 288 292 300 304 305 308 308 306 307 309 310 312 313 313 313 314 313 313 314 315 317 319 321 321 321 323 324 324 326 330 335 335 332 326 322
281 282 284 285 285 281 281 291 290 296 299 301 303 304 304 304 306 307 309 310 311 312 311 312 311 311 312 315 317 318 321 321 322 322 323 324 326 329 335 339 345 344 338 336
284 285 286 290 292 288 290 294 299 298 300 300 303 302 305 306 308 311 312 312 310 310 310 310 310 311 315 317 318 319 322 323 322 323 325 325 329 334 337 342 347 352 354 350
287 289 292 292 285 285 292 296 297 297 299 301 304 305 307 309 309 311 313 311 312 312 309 309 313 316 318 318 319 323 325 325 325 327 327 331 335 337 340 344 348 353 1 1
286 286 286 285 288 289 291 298 294 299 300 303 301 304 306 308 310 313 313 307 307 308 309 314 318 317 320 322 325 328 329 330 331 331 333 338 338 339 341 345 348 354 359 8
288 288 291 291 291 291 296 297 298 299 299 299 302 306 309 312 314 313 312 310 310 311 316 319 323 325 326 328 330 330 333 334 335 337 341 342 341 340 342 344 346 350 355 360
287 288 291 289 290 290 293 293 296 298 300 303 306 310 313 314 315 315 314 313 316 321 328 329 329 329 332 332 333 334 335 338 338 342 343 344 343 342 342 345 346 348 351 356
286 289 291 293 292 294 293 296 300 301 305 308 310 312 314 316 315 315 320 329 332 331 332 334 335 338 338 339 340 340 340 340 342 344 345 346 345 344 344 348 349 355 4 11
284 287 288 290 293 294 297 299 302 304 306 308 311 314 318 321 326 335 338 338 338 338 344 343 339 340 341 345 346 345 343 343 344 344 348 348 348 346 348 354 354 5 10 16
280 286 286 289 294 300 300 300 302 305 306 308 312 318 327 334 341 343 347 349 351 350 348 348 347 346 346 348 350 345 345 345 343 345 351 351 351 348 358 359 9 20 36 55
282 286 286 288 295 294 297 298 300 301 305 309 314 323 332 343 343 342 345 347 348 348 344 345 346 349 351 350 353 346 346 343 343 348 353 354 352 358 4 11 35 60 65 63
283 285 288 289 290 294 295 295 297 301 303 310 319 329 336 340 341 341 342 342 342 346 345 345 347 346 348 351 353 348 345 339 342 350 356 356 357 7 16 48 71 67 65 64
Height
10910 10910 10910 10910 10908 10907 10905 10903 10901 10898 10896 10894 10892 10890 10888 10885 10883 10879 10876 10871 10867 10863 10859 10854 10849 10845 10840 10834 10828 10821 10814 10808 10802 10794 10786 10781 10772 10767 10757 10749 10740 10729 10721 10712
10907 10907 10907 10907 10906 10905 10902 10900 10898 10895 10892 10890 10888 10886 10883 10881 10878 10874 10870 10866 10862 10857 10852 10847 10842 10836 10831 10825 10819 10812 10805 10798 10791 10783 10774 10765 10758 10751 10742 10732 10722 10713 10700 10687
10903 10904 10904 10904 10903 10902 10899 10897 10894 10892 10890 10888 10886 10884 10880 10877 10873 10869 10865 10861 10856 10851 10846 10841 10835 10828 10822 10816 10809 10802 10794 10787 10778 10771 10762 10752 10741 10732 10721 10711 10703 10690 10682 10671
10899 10900 10901 10901 10900 10899 10897 10894 10892 10890 10888 10885 10882 10879 10878 10872 10869 10865 10861 10856 10852 10846 10840 10833 10826 10821 10814 10808 10801 10792 10783 10774 10765 10756 10746 10735 10724 10715 10702 10690 10677 10665 10651 10639
10895 10896 10897 10897 10897 10896 10894 10893 10890 10887 10884 10881 10877 10874 10873 10867 10865 10861 10855 10851 10845 10838 10833 10825 10820 10814 10805 10799 10791 10781 10771 10761 10752 10742 10730 10721 10710 10694 10682 10668 10652 10637 10620 10606
10891 10893 10894 10894 10893 10891 10890 10889 10886 10883 10880 10878 10872 10869 10868 10863 10858 10854 10850 10844 10838 10832 10824 10819 10812 10803 10794 10786 10777 10770 10757 10746 10736 10725 10714 10699 10685 10672 10657 10641 10623 10607 10590 10573
10888 10889 10890 10890 10889 10887 10885 10883 10881 10878 10874 10872 10867 10864 10860 10859 10853 10847 10842 10835 10829 10825 10817 10811 10801 10792 10787 10775 10764 10753 10743 10733 10721 10709 10696 10682 10667 10653 10636 10620 10602 10584 10568 10552
10883 10884 10885 10884 10884 10882 10880 10879 10875 10873 10870 10866 10864 10859 10857 10851 10847 10842 10836 10829 10822 10813 10805 10797 10791 10781 10771 10762 10750 10738 10728 10716 10706 10692 10678 10665 10648 10631 10615 10597 10579 10564 10547 10529
10878 10880 10879 10879 10878 10877 10875 10871 10870 10868 10864 10861 10855 10852 10850 10847 10839 10835 10827 10821 10813 10805 10798 10789 10780 10773 10760 10750 10740 10726 10715 10702 10689 10674 10660 10644 10628 10611 10593 10575 10558 10542 10524 10508
10872 10873 10873 10873 10872 10870 10867 10865 10863 10860 10857 10854 10849 10842 10841 10837 10833 10825 10817 10809 10801 10794 10787 10778 10768 10761 10748 10737 10725 10717 10698 10685 10672 10656 10641 10624 10607 10588 10570 10553 10535 10519 10504 10491
10867 10866 10867 10866 10865 10863 10860 10859 10854 10850 10848 10844 10842 10836 10838 10827 10821 10816 10807 10800 10791 10782 10775 10765 10757 10749 10738 10722 10709 10696 10683 10669 10655 10641 10626 10606 10587 10567 10550 10531 10514 10499 10487 10477
10861 10860 10861 10861 10856 10856 10853 10850 10848 10845 10840 10835 10831 10826 10825 10822 10812 10807 10797 10792 10783 10774 10766 10752 10742 10733 10720 10710 10696 10681 10668 10653 10636 10622 10604 10586 10568 10549 10531 10513 10498 10485 10475 10464
10855 10855 10853 10851 10850 10850 10845 10843 10840 10837 10832 10827 10824 10822 10814 10811 10804 10798 10790 10780 10772 10766 10755 10743 10729 10716 10706 10695 10683 10668 10650 10632 10618 10602 10585 10567 10549 10531 10514 10498 10484 10472 10460 10449
10846 10847 10846 10845 10843 10842 10841 10837 10833 10828 10825 10822 10817 10813 10808 10801 10795 10788 10780 10770 10761 10752 10742 10731 10719 10705 10692 10680 10666 10652 10635 10624 10604 10587 10570 10552 10534 10517 10502 10488 10472 10456 10443 10433
10839 10838 10837 10838 10837 10833 10829 10828 10825 10821 10818 10815 10809 10803 10799 10793 10784 10778 10770 10760 10750 10741 10730 10719 10708 10694 10680 10667 10653 10637 10623 10605 10590 10573 10555 10538 10521 10507 10493 10479 10461 10444 10430 10420
10831 10830 10829 10829 10829 10824 10821 10819 10814 10812 10808 10805 10801 10794 10793 10785 10778 10769 10759 10750 10739 10729 10718 10707 10694 10681 10668 10655 10640 10624 10611 10596 10576 10559 10544 10527 10513 10500 10487 10472 10456 10438 10423 10412
10824 10823 10821 10819 10820 10815 10813 10810 10806 10801 10799 10795 10794 10788 10782 10774 10768 10760 10751 10739 10729 10718 10707 10693 10681 10669 10657 10643 10629 10616 10601 10585 10567 10549 10534 10519 10507 10496 10483 10469 10453 10438 10421 10410
10817 10815 10813 10812 10808 10808 10806 10804 10798 10794 10791 10786 10783 10777 10772 10766 10759 10750 10742 10728 10712 10702 10691 10679 10669 10658 10645 10633 10620 10607 10591 10573 10556 10539 10524 10513 10503 10492 10480 10467 10454 10439 10425 10413
10810 10809 10806 10804 10801 10799 10796 10797 10790 10787 10780 10779 10772 10767 10761 10753 10746 10744 10731 10716 10702 10691 10679 10670 10659 10648 10637 10624 10611 10596 10580 10563 10546 10530 10518 10510 10500 10489 10478 10467 10455 10443 10431 10420
10802 10801 10798 10796 10793 10790 10783 10786 10780 10778 10772 10769 10763 10756 10749 10738 10730 10723 10715 10702 10691 10680 10671 10661 10651 10641 10629 10616 10602 10587 10571 10554 10538 10525 10516 10509 10499 10488 10478 10467 10456 10444 10435 10427
10794 10793 10792 10789 10786 10780 10784 10776 10772 10768 10763 10756 10750 10743 10736 10727 10715 10703 10695 10687 10678 10671 10664 10656 10645 10634 10623 10609 10595 10579 10562 10545 10532 10524 10516 10508 10498 10488 10478 10467 10458 10447 10437 10430
10785 10784 10781 10779 10776 10773 10771 10768 10762 10756 10751 10745 10738 10732 10723 10713 10703 10695 10686 10679 10672 10666 10658 10649 10639 10627 10615 10601 10587 10570 10554 10540 10530 10524 10517 10508 10497 10488 10477 10467 10459 10449 10441 10434
10775 10775 10771 10771 10764 10766 10761 10757 10751 10745 10740 10733 10727 10719 10711 10703 10694 10687 10681 10675 10669 10662 10654 10643 10633 10622 10608 10594 10579 10564 10548 10537 10530 10525 10517 10508 10497 10488 10478 10469 10462 10453 10447 10440
10768 10767 10760 10759 10755 10753 10749 10744 10740 10734 10729 10724 10717 10711 10704 10697 10690 10685 10678 10671 10664 10656 10647 10638 10627 10615 10602 10589 10575 10560 10546 10537 10532 10526 10517 10508 10498 10489 10480 10473 10466 10459 10453 10448
10755 10756 10752 10747 10748 10744 10739 10735 10728 10723 10719 10714 10710 10705 10699 10693 10687 10681 10674 10667 10659 10651 10643 10633 10621 10609 10598 10586 10571 10558 10546 10539 10534 10527 10519 10509 10500 10492 10484 10478 10472 10467 10463 10458
10744 10740 10740 10740 10735 10732 10728 10723 10718 10715 10711 10708 10704 10700 10694 10689 10682 10676 10670 10662 10655 10648 10638 10627 10617 10606 10595 10584 10570 10557 10546 10540 10535 10528 10521 10512 10504 10497 10490 10485 10481 10477 10472 10468